Location: ČR
(50.0000°N, 15.0000°E)
Time: 20:11:27
(UTC+00:00)

Vanguard 3 - Pass Details

Date: 24 October 2021
Orbit: 508 x 3260 km, 33.4° (Epoch: 04 December)

Event Time Altitude Azimuth Distance (km) Brightness Sun altitude
Rises 15:48:03 0° 214° (SW) 3,275 11.2 -0.4°
Reaches altitude 10° 15:50:57 10° 195° (SSW) 2,655 10.3 -0.8°
Maximum altitude 15:55:11 18° 153° (SSE) 2,575 9.6 -1.5°
Drops below altitude 10° 16:00:58 10° 115° (ESE) 3,821 10.1 -2.4°
Sets 16:06:23 0° 100° (E) 5,413 10.8 -3.2°
